Location: *
(58.7167°N, 26.1833°E)
Time: 19:40:03
(UTC+00:00)

Cosmos 2219 Rocket - Pass Details

Date: 25 August 2019
Orbit: 829 x 845 km, 71.0° (Epoch: 19 October)

Event Time Altitude Azimuth Distance (km) Brightness Sun altitude
Rises 19:53:35 0° 316° (NW) 3,390 7.2 -14.8°
Reaches altitude 10° 19:56:12 10° 324° (NW) 2,452 6.0 -15.0°
Maximum altitude 20:01:29 40° 34° (NNE) 1,212 3.2 -15.4°
Enters shadow 20:06:09 13° 101° (E) 2,241 4.0 -15.7°
